Location: Newark
(13.6797°N, 8.5297°E)
Time: 07:55:19
(UTC+00:00)

Courier 1B Rocket - Pass Details

Date: 23 January 2020
Orbit: 920 x 1202 km, 28.2° (Epoch: 17 February)

Event Time Altitude Azimuth Distance (km) Brightness Sun altitude
Rises 10:55:06 0° 263° (W) 3,974 8.1 55.2°
Reaches altitude 10° 10:58:07 10° 269° (W) 2,974 7.6 55.4°
Maximum altitude 11:05:00 44° 339° (NNW) 1,432 6.1 55.9°
Drops below altitude 10° 11:11:24 10° 50° (NE) 2,773 7.3 56.2°
Sets 11:14:09 0° 57° (ENE) 3,683 7.9 56.3°
